Hourly Data Report for October 01, 2013

All times are specified in Local Standard Time (LST). Add 1 hour to adjust for Daylight Saving Time where and when it is observed.

PETAWAWA AWOS 2
ONTARIO

45°57'00.000" N
77°19'00.000" W
130.10 m
6106396
71625
YWA

Related Data

No related data is available for this station

Download Data

Hourly Data (October 2013)
Hourly Data Report for October 1, 2013
Temp Definition
°C
Dew Point Temp Definition
°C
Rel Hum Definition
%
Wind Dir Definition
10's deg

Wind Spd Definition
km/h
Visibility Definition
km
Stn Press Definition
kPa
Hmdx Definition


Wind Chill Definition


Weather Definition


TIME
00:00 16.5 15.7 95   0 14.5 99.79      
01:00 16.0 15.3 96 29 4 11.3 99.86      
02:00 12.8 12.8 100 24 4 0.6 99.83      
03:00 13.5 13.5 100   0 1.0 99.83      
04:00 11.9 11.9 100   0 0.2 99.85      
05:00 10.3 10.3 100   0 0.8 99.90      
06:00 10.0 10.0 100 28 6 8.0 99.96      
07:00 10.0 9.9 99 26 4 3.2 99.99      
08:00 13.7 12.0 89   0 15.0 99.96      
09:00 15.1 12.3 83   0 15.0 99.97      
10:00 16.4 13.6 84 6 7 15.0 99.94      
11:00 18.3 13.4 73 6 7 15.0 99.86      
12:00 19.9 12.7 63   0 15.0 99.76      
13:00 20.9 11.8 56 20 4 15.0 99.67      
14:00 23.0 10.9 46 17 7 15.0 99.60 25    
15:00 23.5 11.3 46 18 9 15.0 99.53 25    
16:00 21.9 11.7 52 19 7 15.0 99.49      
17:00 20.9 12.6 59 16 6 15.0 99.47      
18:00 20.2 11.8 58 16 6 15.0 99.42      
19:00 18.4 11.5 64   0 15.0 99.42      
20:00 16.0 11.8 76 17 6 15.0 99.39      
21:00 13.5 12.0 91 14 4 15.0 99.37      
22:00 13.5 13.0 97   0 15.0 99.37      
23:00 12.5 11.9 96   0 15.0 99.31      

Notes on Data Quality.

Legend

  • E = Estimated
  • M = Missing
  • NA = Not Available
  • ‡ = Partner data that is not subject to review by the National Climate Archives
Date modified: